Total_Precipitation_Accumulation
0.04 0.04 0.03 0.03 0.04 0.06 0.06 0.05 0.05 0.06 0.08 0.09 0.10 0.11 0.13 0.13 0.14 0.12 0.10 0.09 0.08 0.08 0.13 0.26 0.45 0.64 0.78 0.92 1.03 0.95 0.92 0.79 0.53 0.39 0.38 0.47 0.53 0.59 0.60 0.65 0.63 0.50 0.44
0.01 0.01 0.01 0.02 0.02 0.02 0.02 0.01 0.01 0.01 0.01 0.03 0.04 0.06 0.09 0.10 0.11 0.13 0.13 0.14 0.12 0.10 0.11 0.16 0.27 0.51 0.71 0.82 0.98 1.12 1.02 1.00 0.86 0.59 0.43 0.42 0.47 0.53 0.56 0.62 0.66 0.62 0.50
0.00 0.00 0.01 0.01 0.01 0.01 0.01 0.00 0.00 0.00 0.00 0.00 0.01 0.01 0.02 0.05 0.07 0.08 0.11 0.15 0.17 0.15 0.14 0.15 0.17 0.32 0.56 0.75 0.88 1.12 1.20 1.09 1.11 0.98 0.73 0.53 0.47 0.47 0.51 0.55 0.61 0.66 0.59
0.00 0.00 0.00 0.00 0.00 0.00 0.00 0.00 0.00 0.00 0.00 0.00 0.00 0.00 0.00 0.01 0.02 0.03 0.05 0.10 0.18 0.21 0.19 0.18 0.18 0.20 0.38 0.61 0.84 1.04 1.43 1.34 1.23 1.27 1.21 0.88 0.61 0.51 0.50 0.53 0.57 0.64 0.67
0.00 0.00 0.00 0.00 0.00 0.00 0.00 0.00 0.00 0.00 0.00 0.00 0.00 0.00 0.00 0.00 0.01 0.02 0.03 0.05 0.09 0.17 0.23 0.23 0.22 0.19 0.24 0.42 0.66 0.90 1.35 1.68 1.49 1.37 1.40 1.31 0.96 0.68 0.56 0.54 0.59 0.63 0.68
0.00 0.00 0.00 0.00 0.00 0.00 0.00 0.00 0.00 0.00 0.00 0.00 0.00 0.00 0.00 0.00 0.00 0.01 0.02 0.04 0.05 0.09 0.17 0.24 0.26 0.20 0.17 0.21 0.38 0.71 1.07 1.50 1.74 1.60 1.51 1.51 1.36 1.04 0.77 0.63 0.61 0.69 0.70
0.00 0.00 0.00 0.00 0.00 0.00 0.00 0.00 0.00 0.01 0.01 0.01 0.02 0.01 0.00 0.00 0.00 0.00 0.00 0.01 0.03 0.05 0.09 0.19 0.27 0.26 0.20 0.18 0.19 0.32 0.65 1.13 1.58 1.79 1.78 1.69 1.62 1.39 1.07 0.83 0.70 0.74 0.78
0.00 0.00 0.00 0.00 0.00 0.00 0.00 0.01 0.01 0.02 0.02 0.03 0.06 0.09 0.04 0.00 0.00 0.00 0.00 0.00 0.01 0.02 0.06 0.11 0.21 0.27 0.26 0.20 0.13 0.15 0.28 0.62 1.13 1.59 1.83 1.88 1.81 1.71 1.39 1.07 0.84 0.78 0.84
0.00 0.00 0.00 0.00 0.00 0.00 0.01 0.01 0.02 0.05 0.06 0.04 0.07 0.23 0.29 0.15 0.04 0.00 0.00 0.00 0.01 0.01 0.03 0.07 0.14 0.22 0.28 0.27 0.21 0.16 0.17 0.30 0.65 1.16 1.59 1.83 1.91 1.94 1.75 1.33 1.01 0.82 0.83
0.00 0.00 0.00 0.00 0.00 0.00 0.01 0.03 0.04 0.06 0.11 0.12 0.09 0.13 0.22 0.27 0.28 0.12 0.01 0.01 0.01 0.02 0.02 0.03 0.07 0.14 0.22 0.29 0.30 0.28 0.23 0.20 0.36 0.67 1.12 1.60 1.89 2.07 2.14 1.70 1.20 0.93 0.86
0.00 0.00 0.00 0.00 0.00 0.00 0.02 0.03 0.05 0.08 0.13 0.19 0.18 0.16 0.14 0.13 0.17 0.27 0.12 0.02 0.03 0.03 0.03 0.03 0.05 0.09 0.15 0.23 0.29 0.31 0.32 0.25 0.30 0.46 0.72 1.21 1.68 2.12 2.48 2.26 1.55 1.05 0.85
0.00 0.00 0.00 0.00 0.00 0.01 0.02 0.04 0.07 0.10 0.14 0.17 0.20 0.21 0.24 0.25 0.19 0.25 0.21 0.07 0.03 0.02 0.03 0.03 0.04 0.08 0.13 0.20 0.25 0.32 0.33 0.31 0.31 0.37 0.47 0.80 1.31 1.78 2.41 2.63 2.05 1.37 0.94
0.00 0.00 0.00 0.00 0.00 0.01 0.03 0.06 0.10 0.12 0.13 0.18 0.21 0.22 0.23 0.24 0.24 0.27 0.29 0.17 0.08 0.02 0.02 0.03 0.05 0.08 0.12 0.17 0.21 0.26 0.27 0.30 0.34 0.39 0.37 0.43 0.76 1.34 2.00 2.72 2.80 2.00 1.31
0.01 0.00 0.00 0.00 0.01 0.02 0.04 0.08 0.11 0.12 0.15 0.19 0.20 0.23 0.24 0.20 0.22 0.27 0.33 0.35 0.26 0.08 0.03 0.02 0.04 0.07 0.11 0.15 0.20 0.24 0.22 0.25 0.30 0.33 0.32 0.32 0.40 0.70 1.30 2.19 3.05 2.99 2.16
0.01 0.01 0.01 0.01 0.01 0.03 0.06 0.09 0.11 0.14 0.18 0.21 0.23 0.25 0.28 0.25 0.25 0.26 0.29 0.38 0.49 0.34 0.09 0.02 0.04 0.06 0.10 0.15 0.20 0.20 0.21 0.22 0.24 0.26 0.28 0.28 0.30 0.41 0.68 1.23 2.12 3.03 3.14
0.01 0.01 0.01 0.02 0.03 0.06 0.08 0.10 0.12 0.15 0.20 0.23 0.28 0.31 0.33 0.35 0.35 0.32 0.32 0.33 0.39 0.43 0.25 0.04 0.04 0.08 0.13 0.16 0.22 0.19 0.22 0.24 0.22 0.23 0.24 0.26 0.27 0.35 0.51 0.77 1.29 2.11 2.88
0.01 0.01 0.03 0.05 0.08 0.11 0.12 0.14 0.17 0.21 0.25 0.26 0.31 0.38 0.42 0.45 0.49 0.46 0.44 0.39 0.35 0.38 0.34 0.09 0.03 0.05 0.14 0.19 0.21 0.21 0.23 0.22 0.19 0.20 0.22 0.23 0.25 0.30 0.42 0.60 0.87 1.38 2.11
0.01 0.02 0.06 0.11 0.15 0.18 0.17 0.18 0.21 0.31 0.43 0.44 0.41 0.43 0.45 0.49 0.54 0.56 0.57 0.50 0.40 0.34 0.33 0.19 0.06 0.05 0.10 0.21 0.26 0.25 0.24 0.22 0.20 0.20 0.22 0.23 0.23 0.27 0.35 0.47 0.65 0.93 1.47
0.01 0.02 0.08 0.18 0.24 0.29 0.29 0.27 0.30 0.36 0.51 0.64 0.67 0.66 0.61 0.57 0.58 0.58 0.61 0.57 0.48 0.38 0.32 0.25 0.14 0.08 0.10 0.20 0.31 0.34 0.31 0.27 0.23 0.22 0.23 0.23 0.24 0.26 0.30 0.36 0.49 0.67 0.92
0.02 0.04 0.08 0.18 0.28 0.40 0.52 0.54 0.56 0.54 0.57 0.66 0.72 0.77 0.78 0.80 0.75 0.69 0.66 0.61 0.55 0.47 0.37 0.31 0.22 0.15 0.13 0.19 0.33 0.41 0.37 0.31 0.28 0.25 0.25 0.24 0.25 0.26 0.25 0.24 0.27 0.41 0.64
0.02 0.04 0.06 0.10 0.19 0.47 0.87 0.90 0.81 0.73 0.60 0.51 0.51 0.55 0.65 0.80 0.86 0.87 0.86 0.75 0.66 0.62 0.52 0.41 0.33 0.25 0.21 0.25 0.36 0.44 0.48 0.43 0.37 0.34 0.31 0.26 0.24 0.22 0.21 0.24 0.28 0.35 0.48
0.02 0.03 0.03 0.05 0.12 0.40 0.83 0.89 0.68 0.50 0.35 0.32 0.34 0.34 0.37 0.52 0.62 0.69 0.78 0.77 0.77 0.80 0.77 0.65 0.50 0.39 0.31 0.31 0.37 0.48 0.56 0.59 0.52 0.40 0.39 0.37 0.33 0.30 0.25 0.22 0.24 0.27 0.33
0.01 0.03 0.02 0.01 0.04 0.25 0.63 0.73 0.51 0.28 0.18 0.17 0.19 0.19 0.20 0.29 0.39 0.43 0.49 0.52 0.57 0.69 0.86 0.90 0.81 0.63 0.46 0.36 0.41 0.48 0.55 0.61 0.59 0.54 0.53 0.59 0.56 0.46 0.37 0.33 0.33 0.28 0.29
0.01 0.02 0.02 0.00 0.01 0.10 0.48 0.65 0.46 0.20 0.12 0.12 0.14 0.12 0.09 0.15 0.28 0.36 0.37 0.37 0.43 0.57 0.81 0.96 1.03 0.93 0.73 0.55 0.50 0.57 0.63 0.61 0.64 0.72 0.72 0.81 0.84 0.69 0.57 0.47 0.40 0.32 0.30
0.00 0.00 0.01 0.00 0.00 0.03 0.31 0.64 0.53 0.22 0.11 0.09 0.12 0.13 0.08 0.07 0.20 0.24 0.17 0.20 0.25 0.38 0.54 0.73 0.81 0.79 0.73 0.70 0.67 0.68 0.73 0.71 0.83 1.00 0.98 0.98 1.09 1.00 0.86 0.76 0.60 0.45 0.35
0.00 0.00 0.00 0.00 0.00 0.01 0.15 0.55 0.68 0.28 0.11 0.08 0.08 0.09 0.13 0.13 0.17 0.14 0.08 0.09 0.18 0.27 0.29 0.35 0.41 0.45 0.49 0.54 0.63 0.76 0.88 0.88 1.00 1.22 1.16 1.02 1.20 1.21 1.25 1.14 0.82 0.53 0.42